Welcome to our new website - Welkom op onze vernieuwde website - Bienvenue sur notre nouveau site web - Willkommen auf unserer neuen Website


Onweer radar Meer informatie blitzortung!


Regen radar Meer informatie rain snow radar


Andere websites:

Onze vorige site

Leuven Template



Select another period ( hide this area )

Eenheden Periode Custom range Directly to
Metrisch Engels Beide
Dagelijkse Wekelijkse Maandelijkse Jaarlijkse
use both date-selectors for a custom range
previous Dag
With this date

WeatherUnderground graphs for this period ( click here )


Dagelijkse Samenvatting Vrijdag 17 januari 2020
Tijd Temp. ( °C ) Dew pt. ( °C ) Wind ( km/h ) van Windvlaag ( km/h ) Luchtdruk ( hPa ) Humid.( % ) Rainrate ( cm )
Hoog9,3 8,0 11,3 ZZW ( 96/314 ) 25,7 1016,5 95 0,30
Gemiddeld8,6 6,5 5,1 ZZW #18/62 14,5 1013,1 87 0,60
Laag7,6 5,5 -   8,0 1010,9 83 -
Dagelijkse Tabular details for Vrijdag 17 januari 2020
Tijd Temp. ( °C ) Dew pt. ( °C ) Wind ( km/h ) van Windvlaag ( km/h ) Luchtdruk ( hPa ) Humid.( % ) Rainrate ( cm )
00:00 9,2 6,6 8,0 WZW 19,3 1016,4 84 -
00:15 9,1 6,4 9,7 Zuiden 22,5 1016,5 83 -
00:30 8,8 6,3 9,7 ZZO 25,7 1016,5 84 -
00:45 8,5 6,1 8,0 Zuiden 16,1 1016,5 85 -
01:00 8,5 6,3 3,2 ZO 22,5 1016,2 86 -
01:15 8,6 6,4 6,4 OZO 20,9 1016,1 86 -
01:30 8,6 6,3 3,2 ZZW 19,3 1015,9 86 -
01:45 8,4 6,2 3,2 Oosten 11,3 1015,7 86 -
02:00 8,4 6,2 4,8 Zuiden 16,1 1015,6 86 -
02:15 8,4 6,2 6,4 ZZW 17,7 1015,3 86 -
02:30 8,5 6,1 1,6 Oosten 17,7 1015,3 85 -
02:45 8,4 6,0 4,8 Zuiden 20,9 1015,2 85 -
03:00 8,4 6,0 4,8 ZW 16,1 1015,0 85 -
03:15 8,5 6,1 3,2 ZZO 14,5 1014,9 85 -
03:30 8,6 6,2 3,2 ZZW 17,7 1014,6 85 -
03:45 8,8 6,2 3,2 OZO 12,9 1014,4 84 -
04:00 8,7 6,2 6,4 ZZW 12,9 1014,2 84 -
04:15 8,8 6,3 11,3 ZZW 12,9 1014,1 84 -
04:30 8,9 6,4 4,8 ZZW 9,7 1014,0 84 -
04:45 8,7 6,2 6,4 ZW 8,0 1013,8 84 -
05:00 8,7 6,3 3,2 ZZW 9,7 1013,8 85 -
05:15 8,5 6,1 3,2 ZW 9,7 1013,5 85 -
05:30 8,5 5,9 4,8 Zuiden 14,5 1013,0 84 -
05:45 8,2 5,8 9,7 ZO 12,9 1012,8 85 -
06:00 7,9 5,7   Kalm 12,9 1012,9 86 -
06:15 7,9 5,7 3,2 ZO 12,9 1012,8 86 -
06:30 7,7 5,5 1,6 ZO 11,3 1012,9 86 -
06:45 7,7 5,7 4,8 ZZW 11,3 1012,8 87 -
07:00 7,7 5,7 1,6 ZW 12,9 1012,6 87 -
07:15 7,8 5,6 3,2 ZZO 12,9 1012,4 86 -
07:30 8,1 5,9 1,6 ZW 14,5 1012,2 86 -
07:45 8,1 5,9 1,6 Oosten 12,9 1012,2 86 -
08:00 7,8 5,6 1,6 ZO 9,7 1012,1 86 -
08:15 7,6 5,5 3,2 OZO 11,3 1012,1 87 -
08:30 7,6 5,6 11,3 ZW 14,5 1012,1 87 -
08:45 7,7 5,6 3,2 ZZW 14,5 1012,2 87 -
09:00 7,9 5,9 4,8 ZW 11,3 1012,1 87 -
09:15 8,2 6,0 4,8 ZZW 14,5 1012,1 86 -
09:30 8,4 6,0 4,8 Zuiden 14,5 1012,0 85 -
09:45 8,6 6,2 3,2 Zuiden 11,3 1011,9 85 -
10:00 8,8 6,4 4,8 ZZW 16,1 1011,9 85 -
10:15 8,9 6,4 4,8 ZZW 16,1 1011,9 84 -
10:30 8,9 6,6 4,8 ZW 12,9 1011,9 85 -
10:45 9,1 6,7 9,7 ZZW 12,9 1012,0 85 -
11:00 9,3 6,9 8,0 ZW 17,7 1012,0 85 -
11:15 9,3 6,9 3,2 WZW 12,9 1012,0 85 -
11:30 9,2 7,0 8,0 ZZW 16,1 1012,0 86 -
11:45 9,0 7,3 4,8 ZW 12,9 1012,0 89 -
12:00 8,7 7,3 3,2 ZZW 12,9 1011,9 91 0,30
12:15 8,7 7,5 4,8 ZW 12,9 1011,8 92 0,30
12:30 8,8 7,7 4,8 ZZW 17,7 1011,7 93 0,30
12:45 8,9 7,9 8,0 WZW 16,1 1011,5 93 0,30
13:00 9,1 7,8 8,0 Zuiden 14,5 1011,5 92 -
13:15 9,1 8,0 4,8 ZZW 12,9 1011,3 93 -
13:30 9,1 8,0 4,8 ZZW 12,9 1011,3 93 0,30
13:45 9,1 8,0 9,7 Zuiden 14,5 1011,1 93 0,30
14:00 9,1 7,8 1,6 ZW 14,5 1011,1 92 0,30
14:15 8,9 7,8 8,0 Oosten 14,5 1011,1 93 0,30
14:30 8,8 7,9 4,8 ZZO 12,9 1011,0 94 -
14:45 8,8 7,9 3,2 ZW 12,9 1010,9 94 -
15:00 8,8 7,9 6,4 ZZO 12,9 1010,9 94 0,30
15:15 8,8 8,0 6,4 ZZO 14,5 1010,9 95 0,30
Dagelijkse Samenvatting Vrijdag 17 januari 2020
Tijd Temp. ( °C ) Dew pt. ( °C ) Wind ( km/h ) van Windvlaag ( km/h ) Luchtdruk ( hPa ) Humid.( % ) Rainrate ( cm )
Hoog9,3 8,0 11,3 ZZW ( 96/314 ) 25,7 1016,5 95 0,30
Gemiddeld8,6 6,5 5,1 ZZW #18/62 14,5 1013,1 87 0,60
Laag7,6 5,5 -   8,0 1010,9 83 -
Dagelijkse Tabular details for Vrijdag 17 januari 2020
Tijd Temp. ( °C ) Dew pt. ( °C ) Wind ( km/h ) van Windvlaag ( km/h ) Luchtdruk ( hPa ) Humid.( % ) Rainrate ( cm )
00:00 9,2 6,6 8,0 WZW 19,3 1016,4 84 -
00:15 9,1 6,4 9,7 Zuiden 22,5 1016,5 83 -
00:30 8,8 6,3 9,7 ZZO 25,7 1016,5 84 -
00:45 8,5 6,1 8,0 Zuiden 16,1 1016,5 85 -
01:00 8,5 6,3 3,2 ZO 22,5 1016,2 86 -
01:15 8,6 6,4 6,4 OZO 20,9 1016,1 86 -
01:30 8,6 6,3 3,2 ZZW 19,3 1015,9 86 -
01:45 8,4 6,2 3,2 Oosten 11,3 1015,7 86 -
02:00 8,4 6,2 4,8 Zuiden 16,1 1015,6 86 -
02:15 8,4 6,2 6,4 ZZW 17,7 1015,3 86 -
02:30 8,5 6,1 1,6 Oosten 17,7 1015,3 85 -
02:45 8,4 6,0 4,8 Zuiden 20,9 1015,2 85 -
03:00 8,4 6,0 4,8 ZW 16,1 1015,0 85 -
03:15 8,5 6,1 3,2 ZZO 14,5 1014,9 85 -
03:30 8,6 6,2 3,2 ZZW 17,7 1014,6 85 -
03:45 8,8 6,2 3,2 OZO 12,9 1014,4 84 -
04:00 8,7 6,2 6,4 ZZW 12,9 1014,2 84 -
04:15 8,8 6,3 11,3 ZZW 12,9 1014,1 84 -
04:30 8,9 6,4 4,8 ZZW 9,7 1014,0 84 -
04:45 8,7 6,2 6,4 ZW 8,0 1013,8 84 -
05:00 8,7 6,3 3,2 ZZW 9,7 1013,8 85 -
05:15 8,5 6,1 3,2 ZW 9,7 1013,5 85 -
05:30 8,5 5,9 4,8 Zuiden 14,5 1013,0 84 -
05:45 8,2 5,8 9,7 ZO 12,9 1012,8 85 -
06:00 7,9 5,7   Kalm 12,9 1012,9 86 -
06:15 7,9 5,7 3,2 ZO 12,9 1012,8 86 -
06:30 7,7 5,5 1,6 ZO 11,3 1012,9 86 -
06:45 7,7 5,7 4,8 ZZW 11,3 1012,8 87 -
07:00 7,7 5,7 1,6 ZW 12,9 1012,6 87 -
07:15 7,8 5,6 3,2 ZZO 12,9 1012,4 86 -
07:30 8,1 5,9 1,6 ZW 14,5 1012,2 86 -
07:45 8,1 5,9 1,6 Oosten 12,9 1012,2 86 -
08:00 7,8 5,6 1,6 ZO 9,7 1012,1 86 -
08:15 7,6 5,5 3,2 OZO 11,3 1012,1 87 -
08:30 7,6 5,6 11,3 ZW 14,5 1012,1 87 -
08:45 7,7 5,6 3,2 ZZW 14,5 1012,2 87 -
09:00 7,9 5,9 4,8 ZW 11,3 1012,1 87 -
09:15 8,2 6,0 4,8 ZZW 14,5 1012,1 86 -
09:30 8,4 6,0 4,8 Zuiden 14,5 1012,0 85 -
09:45 8,6 6,2 3,2 Zuiden 11,3 1011,9 85 -
10:00 8,8 6,4 4,8 ZZW 16,1 1011,9 85 -
10:15 8,9 6,4 4,8 ZZW 16,1 1011,9 84 -
10:30 8,9 6,6 4,8 ZW 12,9 1011,9 85 -
10:45 9,1 6,7 9,7 ZZW 12,9 1012,0 85 -
11:00 9,3 6,9 8,0 ZW 17,7 1012,0 85 -
11:15 9,3 6,9 3,2 WZW 12,9 1012,0 85 -
11:30 9,2 7,0 8,0 ZZW 16,1 1012,0 86 -
11:45 9,0 7,3 4,8 ZW 12,9 1012,0 89 -
12:00 8,7 7,3 3,2 ZZW 12,9 1011,9 91 0,30
12:15 8,7 7,5 4,8 ZW 12,9 1011,8 92 0,30
12:30 8,8 7,7 4,8 ZZW 17,7 1011,7 93 0,30
12:45 8,9 7,9 8,0 WZW 16,1 1011,5 93 0,30
13:00 9,1 7,8 8,0 Zuiden 14,5 1011,5 92 -
13:15 9,1 8,0 4,8 ZZW 12,9 1011,3 93 -
13:30 9,1 8,0 4,8 ZZW 12,9 1011,3 93 0,30
13:45 9,1 8,0 9,7 Zuiden 14,5 1011,1 93 0,30
14:00 9,1 7,8 1,6 ZW 14,5 1011,1 92 0,30
14:15 8,9 7,8 8,0 Oosten 14,5 1011,1 93 0,30
14:30 8,8 7,9 4,8 ZZO 12,9 1011,0 94 -
14:45 8,8 7,9 3,2 ZW 12,9 1010,9 94 -
15:00 8,8 7,9 6,4 ZZO 12,9 1010,9 94 0,30
15:15 8,8 8,0 6,4 ZZO 14,5 1010,9 95 0,30

Download your copy of this data-set  here

Our weather-data as stored at Weather Underground. Script ontwikkeld door Jim McMurry. Aangepast voor de template door Leuven-Template.eu

U vindt ons ook hier:

European Weather Network

Weather Underground

AWEKAS

Apparatuur in gebruik:

Weerstation
Davis VP2

Weerprogramma
Cumulus

Davis VP2

Cumulus